Location: Unspecified
(0.0000°N, 0.0000°E)
Time: 07:05:40
(UTC+00:00)

Courier 1B Rocket - All Passes

Search period start: 26 June 2017 00:00
Search period end: 06 July 2017 00:00
Orbit: 920 x 1202 km, 28.2° (Epoch: 25 June)

Date Brightness Start Highest point End Pass type
(mag) Time Alt. Az. Time Alt. Az. Time Alt. Az.
26 Jun - 05:49:08 10° SSW 05:54:33 20° SSE 06:00:02 10° ESE daylight
26 Jun - 07:41:07 10° SW 07:48:51 61° SSE 07:56:28 10° ENE daylight
26 Jun - 09:35:24 10° W 09:42:45 44° NNW 09:49:51 10° NE daylight
26 Jun - 11:33:25 10° NW 11:37:06 14° NNW 11:40:41 10° N daylight
26 Jun - 17:21:45 10° N 17:24:09 12° NNE 17:26:32 10° NE daylight
26 Jun - 19:12:12 10° NW 19:18:06 43° NNE 19:24:02 10° E visible
26 Jun - 21:05:31 10° WNW 21:11:30 48° SSW 21:17:41 10° SE visible
26 Jun - 23:02:17 10° SW 23:05:31 14° SSW 23:08:50 10° S night (unlit)
27 Jun - 04:49:13 10° S 04:52:56 14° SSE 04:56:42 10° SE visible
27 Jun - 06:40:14 10° SW 06:47:28 42° SSE 06:54:45 10° E daylight
27 Jun - 08:33:39 10° WSW 08:41:25 65° NNW 08:49:01 10° NE daylight
27 Jun - 10:30:03 10° WNW 10:35:33 21° NNW 10:40:54 10° NNE daylight
27 Jun - 18:11:43 10° NNW 18:17:03 28° NNE 18:22:19 10° E daylight
27 Jun - 20:04:17 10° WNW 20:10:31 75° SSW 20:16:50 10° SE visible
27 Jun - 21:59:40 10° WSW 22:04:10 20° SSW 22:08:50 10° SSE visible
28 Jun - 05:39:37 10° SSW 05:46:03 29° SSE 05:52:37 10° E visible
28 Jun - 07:32:15 10° WSW 07:40:06 88° SSE 07:47:55 10° ENE daylight
28 Jun - 09:27:27 10° W 09:34:06 30° NNW 09:40:36 10° NNE daylight
28 Jun - 17:11:26 10° NNW 17:15:53 19° NNE 17:20:13 10° ENE daylight
28 Jun - 19:03:17 10° NW 19:09:33 71° NNE 19:15:47 10° ESE visible
28 Jun - 20:57:38 10° W 21:03:00 30° SSW 21:08:29 10° SSE visible
29 Jun - 04:39:19 10° SSW 04:44:34 20° SSE 04:49:58 10° ESE visible
29 Jun - 06:31:09 10° SW 06:38:46 62° SSE 06:46:30 10° ENE daylight
29 Jun - 08:25:21 10° W 08:32:42 44° NNW 08:39:59 10° NE daylight
29 Jun - 10:23:14 10° NW 10:27:11 14° NNW 10:31:03 10° N daylight
29 Jun - 16:11:33 10° N 16:14:32 13° NNE 16:17:27 10° NE daylight
29 Jun - 18:02:29 10° NW 18:08:34 45° NNE 18:14:30 10° E daylight
29 Jun - 19:56:00 10° WNW 20:01:58 46° SSW 20:07:57 10° SE visible
29 Jun - 21:53:09 10° SW 21:55:54 13° SSW 21:58:41 10° S visible
30 Jun - 03:39:35 10° S 03:43:01 14° SSE 03:46:30 10° SE visible
30 Jun - 05:30:21 10° SW 05:37:25 42° SSE 05:44:42 10° E visible
30 Jun - 07:23:40 10° WSW 07:31:20 63° NNW 07:39:04 10° NE daylight
30 Jun - 09:19:58 10° WNW 09:25:34 21° NNW 09:31:05 10° NNE daylight
30 Jun - 17:01:51 10° NNW 17:07:29 30° NNE 17:12:54 10° E daylight
30 Jun - 18:54:39 10° WNW 19:00:59 73° SSW 19:07:13 10° SE visible
30 Jun - 20:50:17 10° WSW 20:54:36 19° SSW 20:58:57 10° SSE visible
01 Jul - 04:29:50 10° SSW 04:36:03 29° SSE 04:42:31 10° E visible
01 Jul - 06:22:20 10° WSW 06:30:00 90° S 06:37:53 10° ENE daylight
01 Jul - 08:17:27 10° W 08:24:03 30° NNW 08:30:41 10° NNE daylight
01 Jul - 10:18:26 10° NNW 10:18:58 10° NNW 10:19:31 10° NNW daylight
01 Jul - 16:01:24 10° NNW 16:06:15 21° NNE 16:10:55 10° ENE daylight
01 Jul - 17:53:31 10° NW 18:00:01 73° NNE 18:06:16 10° ESE daylight
01 Jul - 19:48:06 10° W 19:53:27 29° SSW 19:58:47 10° SSE visible
02 Jul - 03:29:40 10° SSW 03:34:39 20° SSE 03:39:49 10° ESE visible
02 Jul - 05:21:20 10° SW 05:28:42 63° SSE 05:36:24 10° ENE visible
02 Jul - 07:15:25 10° W 07:22:38 43° NNW 07:29:57 10° NE daylight
02 Jul - 09:13:11 10° NW 09:17:13 15° NNW 09:21:13 10° N daylight
02 Jul - 15:01:14 10° N 15:04:52 15° NNE 15:08:22 10° NE daylight
02 Jul - 16:52:35 10° NW 16:58:59 47° NNE 17:05:03 10° ESE daylight
02 Jul - 18:46:20 10° W 18:52:25 45° SSW 18:58:21 10° SE visible
02 Jul - 20:43:53 10° SW 20:46:18 12° SSW 20:48:44 10° S visible
03 Jul - 02:30:09 10° S 02:33:10 13° SSE 02:36:15 10° SE visible
03 Jul - 04:20:37 10° SW 04:27:25 42° SSE 04:34:35 10° E visible
03 Jul - 06:13:49 10° WSW 06:21:15 62° NNW 06:28:59 10° NE daylight
03 Jul - 08:10:02 10° WNW 08:15:33 21° NNW 08:21:06 10° NNE daylight
03 Jul - 14:02:03 10° N 14:03:17 10° NNE 14:04:29 10° NNE daylight
03 Jul - 15:51:50 10° NW 15:57:51 32° NNE 16:03:32 10° E daylight
03 Jul - 17:44:51 10° WNW 17:51:26 71° SSW 17:57:42 10° SE daylight
03 Jul - 19:40:45 10° WSW 19:45:02 19° SSW 19:49:16 10° SSE visible
04 Jul - 03:20:12 10° SSW 03:26:08 28° SSE 03:32:23 10° E visible
04 Jul - 05:12:35 10° WSW 05:19:57 88° NNW 05:27:45 10° ENE visible
04 Jul - 07:07:36 10° W 07:14:01 29° NNW 07:20:36 10° NNE daylight
04 Jul - 09:08:15 10° NNW 09:09:02 10° NNW 09:09:49 10° NNW daylight
04 Jul - 14:51:14 10° NNW 14:56:34 22° NNE 15:01:38 10° ENE daylight
04 Jul - 16:43:36 10° NW 16:50:25 76° NNE 16:56:49 10° ESE daylight
04 Jul - 18:38:25 10° W 18:43:53 28° SSW 18:49:12 10° SSE visible
05 Jul - 02:20:10 10° SSW 02:24:49 19° SSE 02:29:39 10° ESE visible
05 Jul - 04:11:40 10° SW 04:18:43 63° SSE 04:26:15 10° ENE visible
05 Jul - 06:05:39 10° W 06:12:34 41° NNW 06:19:48 10° NE daylight
05 Jul - 08:03:20 10° NW 08:07:14 14° NNW 08:11:08 10° N daylight
05 Jul - 13:50:52 10° NNW 13:55:06 16° NNE 13:59:12 10° ENE daylight
05 Jul - 15:42:33 10° NW 15:49:20 50° NNE 15:55:39 10° ESE daylight
05 Jul - 17:36:31 10° W 17:42:50 44° SSW 17:48:51 10° SE daylight
05 Jul - 19:34:23 10° SW 19:36:43 12° SSW 19:39:03 10° S visible
